Location: Fluertsh�userhof
(48.7537°N, 10.3850°E)
Time: 03:00:30
(UTC+00:00)

Cosmos 468 - Pass Details

Date: 18 September 2020
Orbit: 761 x 784 km, 74.0° (Epoch: 24 October)

Event Time Altitude Azimuth Distance (km) Brightness Sun altitude
Rises 19:09:32 0° 336° (NNW) 3,278 8.5 -17.7°
Reaches altitude 10° 19:11:56 10° 337° (NNW) 2,348 7.7 -18.0°
Maximum altitude 19:17:17 90° 255° (WSW) 791 4.5 -18.8°
Enters shadow 19:20:19 27° 159° (SSE) 1,482 5.6 -19.3°
